Time,TemperatureF,DewpointF,PressureIn,WindDirection,WindDirectionDegrees,WindSpeedMPH,WindSpeedGustMPH,Humidity,HourlyPrecipIn,Conditions,Clouds,dailyrainin,SoftwareType,DateUTC
2014-04-23 00:03:00,39.4,26.1,29.81,South,180,4.2,6.9,59,0.00,,,0.00,LWC V1.12 B30,2014-04-23 07:03:00,
2014-04-23 00:08:00,39.4,26.1,29.80,SSE,157,6.7,6.7,59,0.00,,,0.00,LWC V1.12 B30,2014-04-23 07:08:00,
2014-04-23 00:13:00,39.0,25.8,29.80,South,180,7.8,7.8,59,0.00,,,0.00,LWC V1.12 B30,2014-04-23 07:13:00,
2014-04-23 00:18:00,38.8,25.7,29.80,South,180,6.5,10.1,59,0.00,,,0.00,LWC V1.12 B30,2014-04-23 07:18:00,
2014-04-23 00:23:00,38.8,25.7,29.80,SSE,157,8.9,8.9,59,0.00,,,0.00,LWC V1.12 B30,2014-04-23 07:23:00,
2014-04-23 00:28:00,38.5,25.3,29.80,South,180,3.6,6.9,59,0.00,,,0.00,LWC V1.12 B30,2014-04-23 07:28:00,
2014-04-23 00:33:00,38.5,25.8,29.80,SSE,157,4.7,4.7,60,0.00,,,0.00,LWC V1.12 B30,2014-04-23 07:33:00,
2014-04-23 00:38:00,38.3,26.0,29.80,SSE,157,6.7,7.2,61,0.00,,,0.00,LWC V1.12 B30,2014-04-23 07:38:00,
2014-04-23 00:44:00,38.1,25.8,29.80,South,180,4.5,28.4,61,0.00,,,0.00,LWC V1.12 B30,2014-04-23 07:44:00,
2014-04-23 00:49:00,38.1,25.8,29.80,SSE,157,4.2,8.1,62,0.00,,,0.00,LWC V1.12 B30,2014-04-23 07:49:00,
2014-04-23 00:54:00,37.9,26.0,29.80,SSW,202,5.8,9.4,62,0.00,,,0.00,LWC V1.12 B30,2014-04-23 07:54:00,
2014-04-23 01:01:00,37.9,26.0,29.80,SSE,157,6.9,6.9,62,0.00,,,0.00,LWC V1.12 B30,2014-04-23 08:01:00,
2014-04-23 01:06:00,37.8,26.3,29.80,South,180,8.1,9.2,63,0.00,,,0.00,LWC V1.12 B30,2014-04-23 08:06:00,
2014-04-23 01:11:00,37.8,26.3,29.80,SSE,157,7.8,8.3,63,0.00,,,0.00,LWC V1.12 B30,2014-04-23 08:11:00,
2014-04-23 01:16:00,37.6,26.5,29.81,South,180,8.9,12.7,64,0.00,,,0.00,LWC V1.12 B30,2014-04-23 08:16:00,
2014-04-23 01:21:00,37.6,26.9,29.81,South,180,8.9,11.9,65,0.00,,,0.00,LWC V1.12 B30,2014-04-23 08:21:00,
2014-04-23 01:26:00,37.4,26.7,29.81,South,180,8.7,12.5,65,0.00,,,0.00,LWC V1.12 B30,2014-04-23 08:26:00,
2014-04-23 01:31:00,37.2,26.9,29.81,South,180,8.9,9.6,66,0.00,,,0.00,LWC V1.12 B30,2014-04-23 08:31:00,
2014-04-23 01:36:00,37.2,26.9,29.80,SE,135,5.4,14.5,66,0.00,,,0.00,LWC V1.12 B30,2014-04-23 08:36:00,
2014-04-23 01:41:00,37.0,27.1,29.81,SSE,157,9.4,12.1,67,0.00,,,0.00,LWC V1.12 B30,2014-04-23 08:41:00,
2014-04-23 01:46:00,36.9,26.9,29.80,SSW,202,11.0,12.3,67,0.00,,,0.00,LWC V1.12 B30,2014-04-23 08:46:00,
2014-04-23 01:51:00,36.7,27.1,29.80,SSW,202,7.4,11.0,68,0.00,,,0.00,LWC V1.12 B30,2014-04-23 08:51:00,
2014-04-23 01:56:00,36.7,27.1,29.80,South,180,11.9,11.9,68,0.00,,,0.00,LWC V1.12 B30,2014-04-23 08:56:00,
2014-04-23 02:01:00,36.3,26.8,29.81,SE,135,7.4,12.5,68,0.00,,,0.00,LWC V1.12 B30,2014-04-23 09:01:00,
2014-04-23 02:06:00,36.3,26.8,29.80,South,180,10.1,12.5,68,0.00,,,0.00,LWC V1.12 B30,2014-04-23 09:06:00,
2014-04-23 02:11:00,36.1,26.9,29.80,SE,135,9.8,14.3,69,0.00,,,0.00,LWC V1.12 B30,2014-04-23 09:11:00,
2014-04-23 02:16:00,36.1,26.9,29.80,SSE,157,6.0,11.4,69,0.00,,,0.00,LWC V1.12 B30,2014-04-23 09:16:00,
2014-04-23 02:21:00,36.0,27.1,29.80,SSE,157,9.8,12.7,70,0.00,,,0.00,LWC V1.12 B30,2014-04-23 09:21:00,
2014-04-23 02:26:00,36.0,27.1,29.80,SSE,157,7.6,10.7,70,0.00,,,0.00,LWC V1.12 B30,2014-04-23 09:26:00,
2014-04-23 02:31:00,35.8,27.3,29.79,South,180,10.1,12.1,71,0.00,,,0.00,LWC V1.12 B30,2014-04-23 09:31:00,
2014-04-23 02:37:00,35.8,27.6,29.79,SSW,202,4.7,9.2,72,0.00,,,0.00,LWC V1.12 B30,2014-04-23 09:37:00,
2014-04-23 02:42:00,35.8,27.6,29.80,South,180,6.9,8.5,72,0.00,,,0.00,LWC V1.12 B30,2014-04-23 09:42:00,
2014-04-23 02:47:00,35.8,27.8,29.79,SSE,157,10.3,11.2,73,0.00,,,0.00,LWC V1.12 B30,2014-04-23 09:47:00,
2014-04-23 02:52:00,35.4,27.9,29.79,SE,135,8.7,14.3,74,0.00,,,0.00,LWC V1.12 B30,2014-04-23 09:52:00,
2014-04-23 02:57:00,35.4,27.9,29.79,SSE,157,6.9,12.1,74,0.00,,,0.00,LWC V1.12 B30,2014-04-23 09:57:00,
2014-04-23 03:02:00,35.4,28.2,29.79,SSE,157,10.3,10.3,75,0.00,,,0.00,LWC V1.12 B30,2014-04-23 10:02:00,
2014-04-23 03:07:00,35.4,28.5,29.79,SSE,157,8.9,12.7,76,0.00,,,0.00,LWC V1.12 B30,2014-04-23 10:07:00,
2014-04-23 03:12:00,35.4,28.5,29.79,SSW,202,5.1,9.8,76,0.00,,,0.00,LWC V1.12 B30,2014-04-23 10:12:00,
2014-04-23 03:17:00,35.4,28.5,29.80,SSE,157,5.6,10.3,76,0.00,,,0.00,LWC V1.12 B30,2014-04-23 10:17:00,
2014-04-23 03:22:00,35.2,28.7,29.79,South,180,9.8,16.1,77,0.00,,,0.00,LWC V1.12 B30,2014-04-23 10:22:00,
2014-04-23 03:27:00,35.2,28.7,29.79,SE,135,9.8,9.8,77,0.00,,,0.00,LWC V1.12 B30,2014-04-23 10:27:00,
2014-04-23 03:32:00,35.2,29.0,29.79,South,180,10.1,13.6,78,0.00,,,0.00,LWC V1.12 B30,2014-04-23 10:32:00,
2014-04-23 03:37:00,35.2,29.0,29.79,South,180,5.8,10.5,78,0.00,,,0.00,LWC V1.12 B30,2014-04-23 10:37:00,
2014-04-23 03:42:00,35.2,29.3,29.78,SSE,157,5.6,12.3,79,0.00,,,0.00,LWC V1.12 B30,2014-04-23 10:42:00,
2014-04-23 03:47:00,35.2,29.3,29.79,SSE,157,13.6,13.6,79,0.00,,,0.00,LWC V1.12 B30,2014-04-23 10:47:00,
2014-04-23 03:52:00,34.9,29.0,29.78,SSW,202,4.5,8.3,79,0.00,,,0.00,LWC V1.12 B30,2014-04-23 10:52:00,
2014-04-23 03:57:00,34.9,29.3,29.79,SE,135,7.6,11.9,80,0.00,,,0.00,LWC V1.12 B30,2014-04-23 10:57:00,
2014-04-23 04:02:00,34.9,29.3,29.79,SSE,157,7.2,10.1,80,0.00,,,0.00,LWC V1.12 B30,2014-04-23 11:02:00,
2014-04-23 04:07:00,34.9,29.3,29.78,SSE,157,9.6,12.5,80,0.00,,,0.00,LWC V1.12 B30,2014-04-23 11:07:00,
2014-04-23 04:12:00,34.9,29.3,29.79,South,180,5.1,8.9,80,0.00,,,0.00,LWC V1.12 B30,2014-04-23 11:12:00,
2014-04-23 04:17:00,34.9,29.3,29.79,SE,135,9.4,10.3,80,0.00,,,0.00,LWC V1.12 B30,2014-04-23 11:17:00,
2014-04-23 04:22:00,35.1,29.5,29.79,South,180,8.1,10.7,80,0.00,,,0.00,LWC V1.12 B30,2014-04-23 11:22:00,
2014-04-23 04:27:00,35.2,29.7,29.79,SSE,157,9.2,17.4,80,0.00,,,0.00,LWC V1.12 B30,2014-04-23 11:27:00,
2014-04-23 04:32:00,35.2,29.7,29.79,SSE,157,8.9,12.5,80,0.00,,,0.00,LWC V1.12 B30,2014-04-23 11:32:00,
2014-04-23 04:37:00,35.2,29.9,29.80,South,180,10.5,12.3,81,0.00,,,0.00,LWC V1.12 B30,2014-04-23 11:37:00,
2014-04-23 04:42:00,35.4,30.1,29.79,SSE,157,8.7,12.1,81,0.00,,,0.00,LWC V1.12 B30,2014-04-23 11:42:00,
2014-04-23 04:47:00,35.4,30.1,29.80,ESE,112,10.5,16.8,81,0.00,,,0.00,LWC V1.12 B30,2014-04-23 11:47:00,
2014-04-23 04:52:00,35.4,30.1,29.80,SE,135,5.6,6.7,81,0.00,,,0.00,LWC V1.12 B30,2014-04-23 11:52:00,
2014-04-23 04:57:00,35.4,30.1,29.80,ESE,112,5.1,8.3,81,0.00,,,0.00,LWC V1.12 B30,2014-04-23 11:57:00,
2014-04-23 05:02:00,35.4,30.1,29.80,SE,135,9.8,13.9,81,0.00,,,0.00,LWC V1.12 B30,2014-04-23 12:02:00,
2014-04-23 05:07:00,35.6,30.3,29.81,South,180,6.5,9.2,81,0.00,,,0.00,LWC V1.12 B30,2014-04-23 12:07:00,
2014-04-23 05:12:00,35.8,30.5,29.81,South,180,6.5,11.9,81,0.00,,,0.00,LWC V1.12 B30,2014-04-23 12:12:00,
2014-04-23 05:17:00,35.8,30.5,29.81,South,180,8.5,9.4,81,0.00,,,0.00,LWC V1.12 B30,2014-04-23 12:17:00,
2014-04-23 05:22:00,35.8,30.5,29.81,ESE,112,8.3,11.6,81,0.00,,,0.00,LWC V1.12 B30,2014-04-23 12:22:00,
2014-04-23 05:27:00,36.0,30.7,29.82,ESE,112,6.3,9.6,81,0.00,,,0.00,LWC V1.12 B30,2014-04-23 12:27:00,
2014-04-23 05:32:00,36.1,30.8,29.82,ESE,112,4.0,7.8,81,0.00,,,0.00,LWC V1.12 B30,2014-04-23 12:32:00,
2014-04-23 05:37:00,36.1,30.8,29.82,SSE,157,4.5,7.4,81,0.00,,,0.00,LWC V1.12 B30,2014-04-23 12:37:00,
2014-04-23 05:42:00,36.3,31.0,29.82,SSE,157,4.7,11.2,81,0.00,,,0.00,LWC V1.12 B30,2014-04-23 12:42:00,
2014-04-23 05:47:00,36.3,31.0,29.82,SE,135,4.7,13.0,81,0.00,,,0.00,LWC V1.12 B30,2014-04-23 12:47:00,
2014-04-23 05:52:00,36.3,31.0,29.82,South,180,2.7,11.6,81,0.00,,,0.00,LWC V1.12 B30,2014-04-23 12:52:00,
2014-04-23 05:57:00,36.5,31.2,29.82,SE,135,13.0,13.2,81,0.00,,,0.00,LWC V1.12 B30,2014-04-23 12:57:00,
2014-04-23 06:02:00,36.7,31.4,29.81,South,180,8.3,12.5,81,0.00,,,0.00,LWC V1.12 B30,2014-04-23 13:02:00,
2014-04-23 06:07:00,36.7,31.4,29.82,South,180,13.4,13.4,81,0.00,,,0.00,LWC V1.12 B30,2014-04-23 13:07:00,
2014-04-23 06:12:00,36.7,31.4,29.83,SSE,157,3.6,9.2,81,0.00,,,0.00,LWC V1.12 B30,2014-04-23 13:12:00,
2014-04-23 06:17:00,36.9,31.6,29.82,South,180,9.6,14.1,81,0.00,,,0.00,LWC V1.12 B30,2014-04-23 13:17:00,
2014-04-23 06:22:00,36.7,31.7,29.83,SSE,157,9.2,11.9,82,0.00,,,0.00,LWC V1.12 B30,2014-04-23 13:22:00,
2014-04-23 06:28:00,36.7,31.7,29.83,SE,135,2.0,8.7,82,0.00,,,0.00,LWC V1.12 B30,2014-04-23 13:28:00,
2014-04-23 06:34:00,36.9,31.9,29.82,SSE,157,7.6,9.8,82,0.00,,,0.00,LWC V1.12 B30,2014-04-23 13:34:00,
2014-04-23 06:39:00,37.0,31.9,29.82,South,180,11.2,11.2,82,0.00,,,0.00,LWC V1.12 B30,2014-04-23 13:39:00,
2014-04-23 06:44:00,36.7,31.9,29.83,South,180,9.6,13.4,82,0.00,,,0.00,LWC V1.12 B30,2014-04-23 13:44:00,
2014-04-23 06:49:00,36.9,31.9,29.83,SSE,157,4.2,9.2,82,0.00,,,0.00,LWC V1.12 B30,2014-04-23 13:49:00,
2014-04-23 06:54:00,36.7,32.0,29.82,South,180,4.5,12.3,83,0.00,,,0.00,LWC V1.12 B30,2014-04-23 13:54:00,
2014-04-23 06:59:00,37.0,32.3,29.83,South,180,9.2,12.5,83,0.00,,,0.00,LWC V1.12 B30,2014-04-23 13:59:00,
2014-04-23 07:04:00,37.2,32.8,29.82,South,180,11.4,11.4,84,0.00,,,0.00,LWC V1.12 B30,2014-04-23 14:04:00,
2014-04-23 07:09:00,37.2,32.8,29.83,SSE,157,6.0,6.3,84,0.00,,,0.00,LWC V1.12 B30,2014-04-23 14:09:00,
2014-04-23 07:14:00,37.6,33.2,29.83,South,180,9.8,11.6,84,0.00,,,0.00,LWC V1.12 B30,2014-04-23 14:14:00,
2014-04-23 07:19:00,37.6,32.9,29.83,South,180,8.1,14.1,83,0.00,,,0.00,LWC V1.12 B30,2014-04-23 14:19:00,
2014-04-23 07:24:00,37.8,33.3,29.83,SE,135,8.5,11.9,84,0.00,,,0.00,LWC V1.12 B30,2014-04-23 14:24:00,
2014-04-23 07:29:00,37.9,33.2,29.83,SSE,157,6.9,11.9,84,0.00,,,0.00,LWC V1.12 B30,2014-04-23 14:29:00,
2014-04-23 07:34:00,37.9,33.2,29.83,SE,135,7.6,10.3,83,0.00,,,0.00,LWC V1.12 B30,2014-04-23 14:34:00,
2014-04-23 07:39:00,37.9,33.2,29.83,SSE,157,7.2,10.5,83,0.00,,,0.00,LWC V1.12 B30,2014-04-23 14:39:00,
2014-04-23 07:44:00,38.3,33.6,29.83,South,180,6.9,8.9,83,0.00,,,0.00,LWC V1.12 B30,2014-04-23 14:44:00,
2014-04-23 07:49:00,38.5,33.8,29.83,SE,135,6.5,9.6,83,0.00,,,0.00,LWC V1.12 B30,2014-04-23 14:49:00,
2014-04-23 07:54:00,38.8,34.1,29.83,ESE,112,8.7,10.3,83,0.00,,,0.00,LWC V1.12 B30,2014-04-23 14:54:00,
2014-04-23 07:59:00,39.0,34.3,29.83,South,180,3.1,10.3,83,0.00,,,0.00,LWC V1.12 B30,2014-04-23 14:59:00,
2014-04-23 08:04:00,39.2,34.5,29.83,SSE,157,11.0,11.0,83,0.00,,,0.00,LWC V1.12 B30,2014-04-23 15:04:00,
2014-04-23 08:09:00,39.6,34.8,29.83,SSE,157,10.5,14.1,83,0.00,,,0.00,LWC V1.12 B30,2014-04-23 15:09:00,
2014-04-23 08:14:00,39.9,35.2,29.83,SSE,157,8.1,11.9,83,0.00,,,0.00,LWC V1.12 B30,2014-04-23 15:14:00,
2014-04-23 08:19:00,40.5,35.7,29.83,SSE,157,12.7,12.7,83,0.00,,,0.00,LWC V1.12 B30,2014-04-23 15:19:00,
2014-04-23 08:24:00,40.8,35.7,29.83,South,180,9.2,9.2,82,0.00,,,0.00,LWC V1.12 B30,2014-04-23 15:24:00,
2014-04-23 08:29:00,41.5,36.4,29.83,SE,135,10.3,12.1,82,0.00,,,0.00,LWC V1.12 B30,2014-04-23 15:29:00,
2014-04-23 08:34:00,41.9,36.8,29.83,South,180,6.9,11.4,82,0.00,,,0.00,LWC V1.12 B30,2014-04-23 15:34:00,
2014-04-23 08:39:00,42.6,37.2,29.83,SSW,202,7.6,11.9,81,0.00,,,0.00,LWC V1.12 B30,2014-04-23 15:39:00,
2014-04-23 08:44:00,43.3,37.6,29.82,SSW,202,8.7,11.2,80,0.00,,,0.00,LWC V1.12 B30,2014-04-23 15:44:00,
2014-04-23 08:49:00,44.2,38.5,29.83,East,90,6.5,9.6,80,0.00,,,0.00,LWC V1.12 B30,2014-04-23 15:49:00,
2014-04-23 08:54:00,44.8,38.7,29.83,SSE,157,6.0,9.6,79,0.00,,,0.00,LWC V1.12 B30,2014-04-23 15:54:00,
2014-04-23 08:59:00,45.3,38.5,29.82,South,180,8.5,9.4,77,0.00,,,0.00,LWC V1.12 B30,2014-04-23 15:59:00,
2014-04-23 09:04:00,45.7,38.9,29.82,South,180,4.9,13.0,77,0.00,,,0.00,LWC V1.12 B30,2014-04-23 16:04:00,
2014-04-23 09:09:00,46.0,38.9,29.81,SSW,202,14.3,14.3,76,0.00,,,0.00,LWC V1.12 B30,2014-04-23 16:09:00,
2014-04-23 09:14:00,46.2,38.8,29.81,SSW,202,7.4,10.7,75,0.00,,,0.00,LWC V1.12 B30,2014-04-23 16:14:00,
2014-04-23 09:19:00,46.8,38.9,29.81,SW,225,10.5,13.0,74,0.00,,,0.00,LWC V1.12 B30,2014-04-23 16:19:00,
2014-04-23 09:24:00,46.8,38.2,29.81,SSW,202,5.1,14.1,72,0.00,,,0.00,LWC V1.12 B30,2014-04-23 16:24:00,
2014-04-23 09:29:00,46.8,38.2,29.82,SSW,202,9.6,10.7,72,0.00,,,0.00,LWC V1.12 B30,2014-04-23 16:29:00,
2014-04-23 09:34:00,46.2,37.4,29.81,SSE,157,6.7,7.8,71,0.00,,,0.00,LWC V1.12 B30,2014-04-23 16:34:00,
2014-04-23 09:39:00,46.2,37.7,29.82,SSW,202,4.0,9.8,72,0.00,,,0.00,LWC V1.12 B30,2014-04-23 16:39:00,
2014-04-23 09:44:00,46.8,38.2,29.82,SSW,202,8.1,11.2,72,0.00,,,0.00,LWC V1.12 B30,2014-04-23 16:44:00,
2014-04-23 09:49:00,46.9,38.0,29.81,SSW,202,8.9,14.3,71,0.00,,,0.00,LWC V1.12 B30,2014-04-23 16:49:00,
2014-04-23 09:54:00,46.8,37.1,29.82,SSW,202,15.7,17.2,69,0.00,,,0.00,LWC V1.12 B30,2014-04-23 16:54:00,
2014-04-23 09:59:00,46.2,37.0,29.82,SW,225,5.1,14.3,70,0.00,,,0.00,LWC V1.12 B30,2014-04-23 16:59:00,
2014-04-23 10:04:00,45.7,36.5,29.83,South,180,6.9,7.8,70,0.00,,,0.00,LWC V1.12 B30,2014-04-23 17:04:00,
2014-04-23 10:09:00,45.5,36.3,29.82,SSW,202,8.9,17.2,70,0.00,,,0.00,LWC V1.12 B30,2014-04-23 17:09:00,
2014-04-23 10:14:00,45.5,36.7,29.83,South,180,6.5,15.0,71,0.00,,,0.00,LWC V1.12 B30,2014-04-23 17:14:00,
2014-04-23 10:19:00,45.7,36.8,29.82,SSW,202,4.7,7.4,71,0.00,,,0.00,LWC V1.12 B30,2014-04-23 17:19:00,
2014-04-23 10:24:00,46.2,37.4,29.82,South,180,7.2,15.7,70,0.00,,,0.00,LWC V1.12 B30,2014-04-23 17:24:00,
2014-04-23 10:29:00,46.6,37.0,29.82,SW,225,8.3,11.2,69,0.00,,,0.00,LWC V1.12 B30,2014-04-23 17:29:00,
2014-04-23 10:34:00,47.3,38.0,29.82,ESE,112,4.7,11.9,70,0.00,,,0.00,LWC V1.12 B30,2014-04-23 17:34:00,
2014-04-23 10:39:00,48.2,38.5,29.81,SSW,202,2.9,13.0,69,0.00,,,0.00,LWC V1.12 B30,2014-04-23 17:39:00,
2014-04-23 10:44:00,49.5,38.9,29.82,South,180,2.9,11.9,67,0.00,,,0.00,LWC V1.12 B30,2014-04-23 17:44:00,
2014-04-23 10:49:00,50.2,38.8,29.81,SW,225,3.8,11.9,65,0.00,,,0.00,LWC V1.12 B30,2014-04-23 17:49:00,
2014-04-23 10:54:00,49.8,38.1,29.81,SW,225,6.9,28.4,64,0.00,,,0.00,LWC V1.12 B30,2014-04-23 17:54:00,
2014-04-23 10:59:00,49.6,37.9,29.81,WSW,247,3.8,6.3,64,0.00,,,0.00,LWC V1.12 B30,2014-04-23 17:59:00,
2014-04-23 11:04:00,50.2,38.8,29.81,SSE,157,12.3,18.6,65,0.00,,,0.00,LWC V1.12 B30,2014-04-23 18:04:00,
2014-04-23 11:09:00,50.9,37.9,29.81,SSW,202,11.4,19.5,61,0.00,,,0.00,LWC V1.12 B30,2014-04-23 18:09:00,
2014-04-23 11:14:00,51.1,38.0,29.81,SW,225,14.1,17.4,61,0.00,,,0.00,LWC V1.12 B30,2014-04-23 18:14:00,
2014-04-23 11:19:00,51.1,37.7,29.81,SW,225,2.7,15.0,60,0.00,,,0.00,LWC V1.12 B30,2014-04-23 18:19:00,
2014-04-23 11:24:00,50.7,36.9,29.80,SSW,202,15.9,17.4,59,0.00,,,0.00,LWC V1.12 B30,2014-04-23 18:24:00,
2014-04-23 11:29:00,50.5,36.7,29.80,SSW,202,11.0,15.9,59,0.00,,,0.00,LWC V1.12 B30,2014-04-23 18:29:00,
2014-04-23 11:34:00,50.5,36.7,29.81,WSW,247,3.4,28.4,59,0.00,,,0.00,LWC V1.12 B30,2014-04-23 18:34:00,
2014-04-23 11:39:00,50.7,36.4,29.81,SW,225,6.7,12.1,58,0.00,,,0.00,LWC V1.12 B30,2014-04-23 18:39:00,
2014-04-23 11:44:00,50.7,36.9,29.80,NW,315,4.7,13.4,59,0.00,,,0.00,LWC V1.12 B30,2014-04-23 18:44:00,
2014-04-23 11:49:00,51.3,37.4,29.80,SSW,202,9.4,18.3,59,0.00,,,0.00,LWC V1.12 B30,2014-04-23 18:49:00,
2014-04-23 11:54:00,51.4,37.1,29.80,SSE,157,5.1,11.0,58,0.00,,,0.00,LWC V1.12 B30,2014-04-23 18:54:00,
2014-04-23 11:59:00,51.4,36.6,29.80,SSW,202,10.1,14.3,57,0.02,,,0.00,LWC V1.12 B30,2014-04-23 18:59:00,
2014-04-23 12:04:00,51.4,36.2,29.80,WSW,247,5.4,6.3,56,0.02,,,0.02,LWC V1.12 B30,2014-04-23 19:04:00,
2014-04-23 12:09:00,51.6,36.3,29.80,SSE,157,5.8,5.8,56,0.02,,,0.02,LWC V1.12 B30,2014-04-23 19:09:00,
2014-04-23 12:14:00,51.6,35.4,29.80,WSW,247,5.1,9.8,54,0.02,,,0.02,LWC V1.12 B30,2014-04-23 19:14:00,
2014-04-23 12:19:00,51.4,35.3,29.80,SSE,157,5.8,15.0,54,0.02,,,0.02,LWC V1.12 B30,2014-04-23 19:19:00,
2014-04-23 12:24:00,51.3,35.6,29.80,SSE,157,10.3,13.0,55,0.02,,,0.02,LWC V1.12 B30,2014-04-23 19:24:00,
2014-04-23 12:29:00,51.8,36.0,29.80,West,270,6.0,15.4,55,0.02,,,0.02,LWC V1.12 B30,2014-04-23 19:29:00,
2014-04-23 12:34:00,52.2,35.9,29.80,SSW,202,15.2,15.2,54,0.02,,,0.02,LWC V1.12 B30,2014-04-23 19:34:00,
2014-04-23 12:39:00,52.5,36.3,29.80,West,270,7.4,18.3,54,0.02,,,0.02,LWC V1.12 B30,2014-04-23 19:39:00,
2014-04-23 12:44:00,53.2,37.4,29.80,SSW,202,15.9,15.9,54,0.02,,,0.02,LWC V1.12 B30,2014-04-23 19:44:00,
2014-04-23 12:49:00,54.1,37.3,29.80,SSW,202,7.4,12.7,53,0.02,,,0.02,LWC V1.12 B30,2014-04-23 19:49:00,
2014-04-23 12:54:00,54.9,36.0,29.79,South,180,6.3,11.0,49,0.02,,,0.02,LWC V1.12 B30,2014-04-23 19:54:00,
2014-04-23 12:59:00,55.2,35.2,29.79,South,180,3.8,7.2,47,0.00,,,0.02,LWC V1.12 B30,2014-04-23 19:59:00,
2014-04-23 13:04:00,55.9,36.4,29.79,South,180,7.4,14.3,48,0.00,,,0.02,LWC V1.12 B30,2014-04-23 20:04:00,
2014-04-23 13:09:00,56.3,36.2,29.79,South,180,6.9,10.1,47,0.00,,,0.02,LWC V1.12 B30,2014-04-23 20:09:00,
2014-04-23 13:14:00,56.1,34.2,29.79,South,180,6.3,13.6,44,0.00,,,0.02,LWC V1.12 B30,2014-04-23 20:14:00,
2014-04-23 13:19:00,55.2,34.1,29.79,SSW,202,4.5,7.8,45,0.00,,,0.02,LWC V1.12 B30,2014-04-23 20:19:00,
2014-04-23 13:24:00,55.2,34.6,29.79,SSW,202,8.7,15.2,46,0.00,,,0.02,LWC V1.12 B30,2014-04-23 20:24:00,
2014-04-23 13:29:00,55.9,35.9,29.79,South,180,5.8,11.2,47,0.00,,,0.02,LWC V1.12 B30,2014-04-23 20:29:00,
2014-04-23 13:34:00,56.8,36.2,29.78,South,180,15.0,15.0,46,0.00,,,0.02,LWC V1.12 B30,2014-04-23 20:34:00,
2014-04-23 13:39:00,57.4,35.5,29.79,SW,225,11.0,15.4,44,0.00,,,0.02,LWC V1.12 B30,2014-04-23 20:39:00,
2014-04-23 13:44:00,57.0,35.8,29.78,SSW,202,9.2,15.9,45,0.00,,,0.02,LWC V1.12 B30,2014-04-23 20:44:00,
2014-04-23 13:49:00,56.8,35.6,29.78,SW,225,11.4,14.1,45,0.00,,,0.02,LWC V1.12 B30,2014-04-23 20:49:00,
2014-04-23 13:54:00,55.9,33.1,29.78,SSW,202,9.6,24.6,42,0.00,,,0.02,LWC V1.12 B30,2014-04-23 20:54:00,
2014-04-23 13:59:00,54.9,32.8,29.78,SSW,202,15.9,15.9,43,0.00,,,0.02,LWC V1.12 B30,2014-04-23 20:59:00,
2014-04-23 14:04:00,54.7,33.0,29.78,South,180,16.8,17.2,44,0.00,,,0.02,LWC V1.12 B30,2014-04-23 21:04:00,
2014-04-23 14:09:00,54.7,32.5,29.79,SSW,202,15.7,15.7,43,0.00,,,0.02,LWC V1.12 B30,2014-04-23 21:09:00,
2014-04-23 14:14:00,54.1,32.0,29.79,SW,225,9.8,10.7,43,0.00,,,0.02,LWC V1.12 B30,2014-04-23 21:14:00,
2014-04-23 14:19:00,54.0,32.4,29.79,South,180,3.8,8.3,44,0.00,,,0.02,LWC V1.12 B30,2014-04-23 21:19:00,
2014-04-23 14:24:00,53.8,32.8,29.79,SW,225,5.1,28.4,45,0.00,,,0.02,LWC V1.12 B30,2014-04-23 21:24:00,
2014-04-23 14:29:00,53.8,32.2,29.80,SSW,202,12.1,14.3,44,0.00,,,0.02,LWC V1.12 B30,2014-04-23 21:29:00,
2014-04-23 14:34:00,53.8,32.2,29.80,SSW,202,4.0,14.1,44,0.00,,,0.02,LWC V1.12 B30,2014-04-23 21:34:00,
2014-04-23 14:39:00,54.7,31.9,29.80,SSE,157,16.5,17.4,42,0.00,,,0.02,LWC V1.12 B30,2014-04-23 21:39:00,
2014-04-23 14:44:00,54.9,31.5,29.80,SW,225,8.7,20.1,41,0.00,,,0.02,LWC V1.12 B30,2014-04-23 21:44:00,
2014-04-23 14:49:00,54.5,31.8,29.80,SSW,202,10.7,15.9,42,0.00,,,0.02,LWC V1.12 B30,2014-04-23 21:49:00,
2014-04-23 14:54:00,54.3,31.6,29.80,SSW,202,8.5,9.6,42,0.00,,,0.02,LWC V1.12 B30,2014-04-23 21:54:00,
2014-04-23 14:59:00,54.3,32.2,29.80,SSE,157,5.8,18.1,43,0.00,,,0.02,LWC V1.12 B30,2014-04-23 21:59:00,
2014-04-23 15:04:00,55.2,33.0,29.80,SSW,202,12.1,13.0,43,0.00,,,0.02,LWC V1.12 B30,2014-04-23 22:04:00,
2014-04-23 15:09:00,55.9,33.1,29.81,South,180,10.5,14.5,42,0.00,,,0.02,LWC V1.12 B30,2014-04-23 22:09:00,
2014-04-23 15:14:00,56.5,33.6,29.80,SSW,202,9.6,9.6,42,0.00,,,0.02,LWC V1.12 B30,2014-04-23 22:14:00,
2014-04-23 15:19:00,57.0,33.5,29.80,SSW,202,17.7,20.4,41,0.00,,,0.02,LWC V1.12 B30,2014-04-23 22:19:00,
2014-04-23 15:24:00,57.4,33.5,29.80,South,180,11.0,21.9,41,0.00,,,0.02,LWC V1.12 B30,2014-04-23 22:24:00,
2014-04-23 15:29:00,57.4,33.8,29.81,SW,225,12.1,18.8,41,0.00,,,0.02,LWC V1.12 B30,2014-04-23 22:29:00,
2014-04-23 15:34:00,57.6,33.4,29.81,WSW,247,14.1,19.7,40,0.00,,,0.02,LWC V1.12 B30,2014-04-23 22:34:00,
2014-04-23 15:39:00,57.6,33.4,29.81,SSW,202,21.0,22.4,40,0.00,,,0.02,LWC V1.12 B30,2014-04-23 22:39:00,
2014-04-23 15:44:00,57.0,33.5,29.80,South,180,2.9,17.4,41,0.00,,,0.02,LWC V1.12 B30,2014-04-23 22:44:00,
2014-04-23 15:49:00,56.5,33.0,29.80,SW,225,1.1,8.3,41,0.00,,,0.02,LWC V1.12 B30,2014-04-23 22:49:00,
2014-04-23 15:54:00,56.1,32.7,29.81,SSW,202,6.3,13.0,41,0.00,,,0.02,LWC V1.12 B30,2014-04-23 22:54:00,
2014-04-23 15:59:00,55.9,33.1,29.80,SSW,202,6.3,16.5,42,0.00,,,0.02,LWC V1.12 B30,2014-04-23 22:59:00,
2014-04-23 16:04:00,55.6,32.7,29.81,SSW,202,5.8,13.4,42,0.00,,,0.02,LWC V1.12 B30,2014-04-23 23:04:00,
2014-04-23 16:10:00,55.2,33.0,29.80,SW,225,2.5,5.6,43,0.00,,,0.02,LWC V1.12 B30,2014-04-23 23:10:00,
2014-04-23 16:15:00,55.2,33.0,29.81,SSW,202,9.6,15.7,43,0.00,,,0.02,LWC V1.12 B30,2014-04-23 23:15:00,
2014-04-23 16:20:00,54.9,32.3,29.80,SW,225,8.9,20.1,42,0.00,,,0.02,LWC V1.12 B30,2014-04-23 23:20:00,
2014-04-23 16:25:00,54.9,32.1,29.80,SSW,202,14.8,18.6,42,0.00,,,0.02,LWC V1.12 B30,2014-04-23 23:25:00,
2014-04-23 16:30:00,54.7,31.9,29.80,SW,225,4.7,19.9,42,0.00,,,0.02,LWC V1.12 B30,2014-04-23 23:30:00,
2014-04-23 16:35:00,54.7,31.9,29.80,SSW,202,10.7,10.7,42,0.00,,,0.02,LWC V1.12 B30,2014-04-23 23:35:00,
2014-04-23 16:40:00,54.5,31.8,29.81,SSW,202,16.5,20.8,42,0.00,,,0.02,LWC V1.12 B30,2014-04-23 23:40:00,
2014-04-23 16:45:00,54.3,32.2,29.81,South,180,12.1,15.2,43,0.00,,,0.02,LWC V1.12 B30,2014-04-23 23:45:00,
2014-04-23 16:50:00,54.5,32.9,29.81,South,180,6.5,8.9,44,0.00,,,0.02,LWC V1.12 B30,2014-04-23 23:50:00,
2014-04-23 16:55:00,54.3,33.3,29.81,South,180,8.9,8.9,45,0.00,,,0.02,LWC V1.12 B30,2014-04-23 23:55:00,
2014-04-23 17:00:00,54.1,32.6,29.81,SSW,202,11.6,13.9,44,0.00,,,0.02,LWC V1.12 B30,2014-04-24 00:00:00,
2014-04-23 17:05:00,53.4,32.5,29.81,SW,225,3.8,16.3,45,0.00,,,0.02,LWC V1.12 B30,2014-04-24 00:05:00,
2014-04-23 17:10:00,52.9,32.0,29.81,SSW,202,8.3,8.3,45,0.00,,,0.02,LWC V1.12 B30,2014-04-24 00:10:00,
2014-04-23 17:15:00,52.9,32.5,29.81,SSW,202,9.6,11.4,46,0.00,,,0.02,LWC V1.12 B30,2014-04-24 00:15:00,
2014-04-23 17:20:00,52.9,32.5,29.81,SSE,157,5.8,7.6,46,0.00,,,0.02,LWC V1.12 B30,2014-04-24 00:20:00,
2014-04-23 17:25:00,52.7,32.4,29.81,WSW,247,5.8,13.2,46,0.00,,,0.02,LWC V1.12 B30,2014-04-24 00:25:00,
2014-04-23 17:30:00,52.9,33.1,29.81,SW,225,16.3,22.1,47,0.00,,,0.02,LWC V1.12 B30,2014-04-24 00:30:00,
2014-04-23 17:35:00,52.9,32.5,29.81,SW,225,14.1,20.8,46,0.00,,,0.02,LWC V1.12 B30,2014-04-24 00:35:00,
2014-04-23 17:40:00,52.9,32.5,29.81,SW,225,13.6,20.6,46,0.00,,,0.02,LWC V1.12 B30,2014-04-24 00:40:00,
2014-04-23 17:45:00,52.9,32.5,29.81,SSW,202,12.7,14.8,46,0.00,,,0.02,LWC V1.12 B30,2014-04-24 00:45:00,
2014-04-23 17:50:00,53.2,32.9,29.81,South,180,13.4,13.4,46,0.00,,,0.02,LWC V1.12 B30,2014-04-24 00:50:00,
2014-04-23 17:55:00,53.2,32.3,29.81,SSE,157,4.7,11.9,45,0.00,,,0.02,LWC V1.12 B30,2014-04-24 00:55:00,
2014-04-23 18:00:00,53.2,32.3,29.81,WSW,247,9.4,17.9,45,0.00,,,0.02,LWC V1.12 B30,2014-04-24 01:00:00,
2014-04-23 18:05:00,53.2,32.3,29.81,South,180,7.6,13.4,45,0.00,,,0.02,LWC V1.12 B30,2014-04-24 01:05:00,
2014-04-23 18:10:00,52.9,31.4,29.81,SW,225,14.3,18.6,44,0.00,,,0.02,LWC V1.12 B30,2014-04-24 01:10:00,
2014-04-23 18:15:00,52.5,31.1,29.81,South,180,12.7,13.4,44,0.00,,,0.02,LWC V1.12 B30,2014-04-24 01:15:00,
2014-04-23 18:20:00,52.0,31.2,29.82,SSW,202,15.7,22.1,45,0.00,,,0.02,LWC V1.12 B30,2014-04-24 01:20:00,
2014-04-23 18:25:00,51.6,30.8,29.82,South,180,8.1,15.9,45,0.00,,,0.02,LWC V1.12 B30,2014-04-24 01:25:00,
2014-04-23 18:30:00,51.4,30.7,29.82,South,180,8.3,24.6,45,0.00,,,0.02,LWC V1.12 B30,2014-04-24 01:30:00,
2014-04-23 18:35:00,51.1,30.9,29.82,WSW,247,9.6,11.6,46,0.00,,,0.02,LWC V1.12 B30,2014-04-24 01:35:00,
2014-04-23 18:40:00,50.7,31.2,29.83,South,180,2.5,19.0,47,0.00,,,0.02,LWC V1.12 B30,2014-04-24 01:40:00,
2014-04-23 18:45:00,50.5,31.5,29.83,South,180,10.3,10.3,48,0.00,,,0.02,LWC V1.12 B30,2014-04-24 01:45:00,
2014-04-23 18:50:00,50.2,31.8,29.83,SSE,157,8.5,8.5,49,0.00,,,0.02,LWC V1.12 B30,2014-04-24 01:50:00,
2014-04-23 18:55:00,49.8,32.0,29.83,South,180,7.2,17.2,50,0.00,,,0.02,LWC V1.12 B30,2014-04-24 01:55:00,
2014-04-23 19:00:00,49.6,32.3,29.82,South,180,7.4,15.0,51,0.00,,,0.02,LWC V1.12 B30,2014-04-24 02:00:00,
2014-04-23 19:05:00,49.3,32.4,29.82,South,180,11.0,11.0,52,0.00,,,0.02,LWC V1.12 B30,2014-04-24 02:05:00,
2014-04-23 19:10:00,49.1,32.5,29.82,SSE,157,6.3,14.3,53,0.00,,,0.02,LWC V1.12 B30,2014-04-24 02:10:00,
2014-04-23 19:15:00,48.7,32.8,29.81,SSW,202,9.4,12.1,54,0.00,,,0.02,LWC V1.12 B30,2014-04-24 02:15:00,
2014-04-23 19:20:00,48.4,32.7,29.82,SSW,202,6.3,13.9,55,0.00,,,0.02,LWC V1.12 B30,2014-04-24 02:20:00,
2014-04-23 19:25:00,48.0,33.5,29.82,South,180,5.6,6.9,57,0.00,,,0.02,LWC V1.12 B30,2014-04-24 02:25:00,
2014-04-23 19:30:00,47.8,33.8,29.82,SSE,157,8.1,10.7,58,0.00,,,0.02,LWC V1.12 B30,2014-04-24 02:30:00,
2014-04-23 19:35:00,47.7,33.6,29.83,South,180,0.0,8.9,58,0.00,,,0.02,LWC V1.12 B30,2014-04-24 02:35:00,
2014-04-23 19:40:00,47.3,33.7,29.83,SSE,157,7.4,7.4,59,0.00,,,0.02,LWC V1.12 B30,2014-04-24 02:40:00,
2014-04-23 19:45:00,47.1,34.0,29.83,South,180,7.8,8.9,60,0.00,,,0.02,LWC V1.12 B30,2014-04-24 02:45:00,
2014-04-23 19:50:00,46.9,34.6,29.83,South,180,4.9,9.8,62,0.00,,,0.02,LWC V1.12 B30,2014-04-24 02:50:00,
2014-04-23 19:55:00,46.9,34.6,29.83,SSE,157,3.8,5.8,62,0.00,,,0.02,LWC V1.12 B30,2014-04-24 02:55:00,
2014-04-23 20:00:00,46.8,34.4,29.83,SSE,157,3.6,9.2,62,0.00,,,0.02,LWC V1.12 B30,2014-04-24 03:00:00,
2014-04-23 20:05:00,46.6,34.6,29.83,SSW,202,3.6,8.9,63,0.00,,,0.02,LWC V1.12 B30,2014-04-24 03:05:00,
2014-04-23 20:10:00,46.6,35.0,29.83,SSE,157,1.8,9.2,64,0.00,,,0.02,LWC V1.12 B30,2014-04-24 03:10:00,
2014-04-23 20:15:00,46.6,35.2,29.83,SSW,202,4.0,8.5,65,0.00,,,0.02,LWC V1.12 B30,2014-04-24 03:15:00,
2014-04-23 20:20:00,46.2,35.1,29.83,SSW,202,5.1,8.9,65,0.00,,,0.02,LWC V1.12 B30,2014-04-24 03:20:00,
2014-04-23 20:25:00,46.2,35.1,29.83,SSE,157,3.6,8.9,65,0.00,,,0.02,LWC V1.12 B30,2014-04-24 03:25:00,
2014-04-23 20:30:00,46.2,35.5,29.83,SE,135,4.9,5.1,66,0.00,,,0.02,LWC V1.12 B30,2014-04-24 03:30:00,
2014-04-23 20:35:00,46.2,35.5,29.83,South,180,6.7,7.6,66,0.00,,,0.02,LWC V1.12 B30,2014-04-24 03:35:00,
2014-04-23 20:40:00,46.2,35.1,29.84,SE,135,4.5,5.4,65,0.00,,,0.02,LWC V1.12 B30,2014-04-24 03:40:00,
2014-04-23 20:45:00,46.2,35.5,29.84,South,180,6.7,9.6,66,0.00,,,0.02,LWC V1.12 B30,2014-04-24 03:45:00,
2014-04-23 20:50:00,46.0,35.3,29.84,South,180,5.6,11.9,66,0.00,,,0.02,LWC V1.12 B30,2014-04-24 03:50:00,
2014-04-23 20:55:00,45.9,35.1,29.84,SSW,202,4.5,11.4,66,0.00,,,0.02,LWC V1.12 B30,2014-04-24 03:55:00,
2014-04-23 21:00:00,45.7,35.3,29.84,SE,135,9.8,9.8,67,0.00,,,0.02,LWC V1.12 B30,2014-04-24 04:00:00,
2014-04-23 21:01:00,45.7,35.3,29.84,South,180,3.6,9.8,67,0.00,,,0.02,LWC V1.12 B30,2014-04-24 04:01:00,
2014-04-23 21:02:00,45.7,35.3,29.84,SE,135,12.3,12.3,67,0.00,,,0.02,LWC V1.12 B30,2014-04-24 04:02:00,
2014-04-23 21:03:00,45.7,35.3,29.84,SSE,157,7.8,12.3,67,0.00,,,0.02,LWC V1.12 B30,2014-04-24 04:03:00,
2014-04-23 21:05:00,45.7,35.3,29.84,SSE,157,8.7,9.4,67,0.00,,,0.02,LWC V1.12 B30,2014-04-24 04:05:00,
2014-04-23 21:06:00,45.7,35.3,29.84,South,180,3.8,9.4,67,0.00,,,0.02,LWC V1.12 B30,2014-04-24 04:06:00,
2014-04-23 21:11:00,45.3,35.4,29.84,SSE,157,8.3,13.6,68,0.00,,,0.02,LWC V1.12 B30,2014-04-24 04:11:00,
2014-04-23 21:16:00,45.1,35.2,29.84,SSE,157,4.2,12.1,68,0.00,,,0.02,LWC V1.12 B30,2014-04-24 04:16:00,
2014-04-23 21:21:00,45.1,35.2,29.83,SE,135,8.1,11.9,68,0.00,,,0.02,LWC V1.12 B30,2014-04-24 04:21:00,
2014-04-23 21:26:00,45.0,35.0,29.84,SE,135,8.1,10.5,68,0.00,,,0.02,LWC V1.12 B30,2014-04-24 04:26:00,
2014-04-23 21:31:00,44.8,35.2,29.84,SSE,157,4.7,11.6,69,0.00,,,0.02,LWC V1.12 B30,2014-04-24 04:31:00,
2014-04-23 21:36:00,44.8,35.2,29.84,South,180,6.0,9.8,69,0.00,,,0.02,LWC V1.12 B30,2014-04-24 04:36:00,
2014-04-23 21:41:00,44.8,35.0,29.85,SE,135,6.7,9.8,69,0.00,,,0.02,LWC V1.12 B30,2014-04-24 04:41:00,
2014-04-23 21:46:00,44.4,34.9,29.85,South,180,7.8,8.1,70,0.00,,,0.02,LWC V1.12 B30,2014-04-24 04:46:00,
2014-04-23 21:51:00,44.4,35.3,29.84,South,180,6.5,8.1,70,0.00,,,0.02,LWC V1.12 B30,2014-04-24 04:51:00,
2014-04-23 21:56:00,44.4,35.3,29.84,SSE,157,5.6,7.8,70,0.00,,,0.02,LWC V1.12 B30,2014-04-24 04:56:00,
2014-04-23 22:01:00,44.4,35.3,29.84,SSE,157,6.7,9.2,70,0.00,,,0.02,LWC V1.12 B30,2014-04-24 05:01:00,
2014-04-23 22:06:00,44.4,35.3,29.84,SSE,157,6.0,9.2,70,0.00,,,0.02,LWC V1.12 B30,2014-04-24 05:06:00,
2014-04-23 22:11:00,44.4,35.3,29.84,SE,135,8.3,12.7,70,0.00,,,0.02,LWC V1.12 B30,2014-04-24 05:11:00,